2022-121C (53950 NORAD) Tracking and Keplerian Element Data

This shows tracking and keplerian element data for the satellite.

Feedback or suggestion? Click here.




ElementValue
Catalog53950
Name2022-121C
Epoch Orbit840
Epoch Day325.33593929
Epoch Year2022
RAAN345.1794
Inclination97.4518
Eccentricity0.0015269
Argument of Perigee86.6139
Mean Anonmoly330.4628
Mean Motion15.18758711
Decay Rate3.827E-05
L11 53950U 22121C 22325.33593929 .00003827 00000+0 18692-3 0 9995
L22 53950 97.4518 345.1794 0015269 86.6139 330.4628 15.18758711 8409



Live tracking and technical data element details for 2022-121C (NORAD 53950). 2022-121C can be tracked NOW for your location showing map with azimuth and elevation plus other details from your city location.







IsCatalogInMostPopularTable: catalog: 53950, numindb: 4
Update: records affected: 1



GetName: 53950 2022-121C

Hit Count: updated at: Thu, 08 Dec 2022 10:24:22 GMT